Regional Weather Roundup
Issued by NWS

Home | Current Version | Previous Version | Text Only | Print | Product List | Glossary Off
Versions: 1 2 3 4 5 6 7 8 9 10 11 12 13 14 15 16 17 18 19 20 21 22 23 24 25 26 27 28 29 30 31 32 33 34 35 36 37 38 39 40 41 42 43 44 45 46 47 48 49 50

000
ASUS45 KCYS 281010
RWRWY

WYOMING REGIONAL WEATHER ROUNDUP
NATIONAL WEATHER SERVICE CHEYENNE WY
400 AM MDT TUE APR 28 2015

NOTE:  "FAIR" INDICATES FEW OR NO CLOUDS BELOW 12,000 FEET
WITH NO SIGNIFICANT WEATHER AND/OR OBSTRUCTIONS TO VISIBILITY.

WYZ001-281100-
YELLOWSTONE NATIONAL PARK

CITY           SKY/WX    TMP DP  RH WIND       PRES   REMARKS
LK YELLOWSTONE   N/A     24  21  88 CALM      30.37S
W YELLOWSTONE  NOT AVBL

$$
WYZ002>013-054>058-071-098>099-281100-
NORTHERN WYOMING

CITY           SKY/WX    TMP DP  RH WIND       PRES   REMARKS
JACKSON        FAIR      30  28  93 NE5       30.35R WCI  25
CODY           FAIR      37  32  81 CALM      30.29S
GREYBULL       FAIR      37  33  85 SE5       30.30S WCI  33
WORLAND        FAIR      41  35  79 S12       30.30S
SHERIDAN       FAIR      31  28  89 CALM      30.29F
BUFFALO        FAIR      37  28  70 W7        30.30F WCI  32
GILLETTE       FAIR      37  32  82 S6        30.30F WCI  32
HULETT         FAIR      32  30  93 S3        30.33S
NEWCASTLE      FOG       37  37 100 SE9       30.35R VSB 1/2 WCI  31

$$
WYZ014>020-022>026-101>103-281100-
CENTRAL WYOMING

CITY           SKY/WX    TMP DP  RH WIND       PRES   REMARKS
BIG PINEY      CLOUDY    31  29  92 NW5       30.37R WCI  26
PINEDALE       NOT AVBL
DUBOIS         FAIR      32  30  93 W5        30.34S WCI  27
LANDER         FAIR      36  30  79 CALM      30.31S
RIVERTON       FAIR      36  30  79 CALM      30.33S
CASPER         FAIR      37  36  96 S3        30.33S
DOUGLAS        CLOUDY    42  40  92 CALM      30.34S

$$
WYZ021-027>030-104>119-281100-
SOUTHERN WYOMING

CITY           SKY/WX    TMP DP  RH WIND       PRES   REMARKS
EVANSTON       FAIR      35  28  75 E7        30.32R WCI  29
KEMMERER       FAIR      34  32  93 N5        30.35S WCI  30
FORT BRIDGER   SUNNY     37  32  81 E3        30.36R
ROCK SPRINGS   FAIR      33  30  88 N3        30.35R
DIXON          FAIR      33  32  94 NE3       30.33R
RAWLINS        CLOUDY    38  33  82 NE5       30.33R WCI  34
SARATOGA       PTSUNNY   32  32 100 MISG      30.33R
LARAMIE        FAIR      31  29  92 SE8       30.32S WCI  23
CHEYENNE       CLOUDY    38  36  92 SE3       30.34S
TORRINGTON     MOCLDY    41  39  93 CALM      30.33S
PINE BLUFFS    CLOUDY    41  39  93 CALM      30.35S

$$



USA.gov is the U.S. government's official web portal to all federal, state and local government web resources and services.